This is the latest recevied weather packets stored in our database for station/object IT9CNT. If no packets are shown the sender has not sent any weather packets the latest 10 day(s).
| Time | Temp. | Humidity | Pressure | Rain* | Wind** | Luminosity | Snow |
|---|---|---|---|---|---|---|---|
| 1787672223 | 33.33° C | 62% | 1013.4 hPa | 0 mm | - | - | - |
| 1787672163 | 33.33° C | 62% | 1013.3 hPa | 0 mm | - | - | - |
| 1787672103 | 33.33° C | 62% | 1013.3 hPa | 0 mm | - | - | - |
| 1787672043 | 33.33° C | 62% | 1013.3 hPa | 0 mm | - | - | - |
| 1787671983 | 33.33° C | 63% | 1013.4 hPa | 0 mm | - | - | - |
| 1787671863 | 33.33° C | 60% | 1013.5 hPa | 0 mm | - | - | - |
| 1787671803 | 33.33° C | 60% | 1013.3 hPa | 0 mm | - | - | - |
| 1787671743 | 33.33° C | 59% | 1013.5 hPa | 0 mm | - | - | - |
| 1787671683 | 33.33° C | 63% | 1013.5 hPa | 0 mm | - | - | - |
| 1787671623 | 33.33° C | 63% | 1013.5 hPa | 0 mm | - | - | - |
| 1787671563 | 33.33° C | 63% | 1013.3 hPa | 0 mm | - | - | - |
| 1787671503 | 33.33° C | 62% | 1013.6 hPa | 0 mm | - | - | - |
| 1787671443 | 33.33° C | 62% | 1013.5 hPa | 0 mm | - | - | - |
| 1787671383 | 33.33° C | 61% | 1013.6 hPa | 0 mm | - | - | - |
| 1787671323 | 33.89° C | 61% | 1013.3 hPa | 0 mm | - | - | - |
| 1787671263 | 33.89° C | 61% | 1013.7 hPa | 0 mm | - | - | - |
| 1787671203 | 33.33° C | 61% | 1013.6 hPa | 0 mm | - | - | - |
| 1787671143 | 33.89° C | 58% | 1013.5 hPa | 0 mm | - | - | - |
| 1787671083 | 33.89° C | 58% | 1013.8 hPa | 0 mm | - | - | - |
| 1787671023 | 33.89° C | 58% | 1013.5 hPa | 0 mm | - | - | - |
| 1787670963 | 33.33° C | 57% | 1013.5 hPa | 0 mm | - | - | - |
| 1787670903 | 33.33° C | 57% | 1013.4 hPa | 0 mm | - | - | - |
| 1787670843 | 33.33° C | 60% | 1013.6 hPa | 0 mm | - | - | - |
| 1787670783 | 33.33° C | 60% | 1013.6 hPa | 0 mm | - | - | - |
| 1787670723 | 33.33° C | 61% | 1013.6 hPa | 0 mm | - | - | - |
* Rain latest hour (hover to see other rain measurements)
** Current wind speed in m/s (hover to see current wind gust speed)